This is the latest recevied weather packets stored in our database for station/object N5GC-2. If no packets are shown the sender has not sent any weather packets the latest 10 day(s).
| Time | Temp. | Humidity | Pressure | Rain* | Wind** | Luminosity | Snow |
|---|---|---|---|---|---|---|---|
| 1778255140 | 23.33° C | 41% | - | 0 mm | - | - | - |
| 1778254837 | 23.33° C | 43% | - | 0 mm | - | - | - |
| 1778254533 | 22.78° C | 44% | - | 0 mm | - | - | - |
| 1778254230 | 22.78° C | 43% | - | 0 mm | - | - | - |
| 1778253927 | 22.22° C | 44% | - | 0 mm | - | - | - |
| 1778253622 | 21.67° C | 44% | - | 0 mm | - | - | - |
| 1778253320 | 21.11° C | 44% | - | 0 mm | - | - | - |
| 1778253016 | 20.56° C | 46% | - | 0 mm | - | - | - |
| 1778252714 | 19.44° C | 49% | - | 0 mm | - | - | - |
| 1778252409 | 18.89° C | 56% | - | 0 mm | - | - | - |
| 1778252106 | 18.89° C | 64% | - | 0 mm | - | - | - |
| 1778251802 | 18.33° C | 64% | - | 0 mm | - | - | - |
| 1778251500 | 17.78° C | 67% | - | 0 mm | - | - | - |
| 1778251197 | 17.78° C | 69% | - | 0 mm | - | - | - |
| 1778250895 | 17.22° C | 68% | - | 0 mm | - | - | - |
| 1778250591 | 17.22° C | 68% | - | 0 mm | - | - | - |
| 1778250288 | 16.67° C | 70% | - | 0 mm | - | - | - |
| 1778249984 | 16.11° C | 70% | - | 0 mm | - | - | - |
| 1778249682 | 16.11° C | 72% | - | 0 mm | - | - | - |
| 1778249379 | 15.56° C | 72% | - | 0 mm | - | - | - |
| 1778249076 | 15° C | 75% | - | 0 mm | - | - | - |
| 1778248771 | 15° C | 77% | - | 0 mm | - | - | - |
| 1778248468 | 14.44° C | 80% | - | 0 mm | - | - | - |
| 1778248165 | 13.89° C | 82% | - | 0 mm | - | - | - |
| 1778247861 | 13.89° C | 82% | - | 0 mm | - | - | - |
* Rain latest hour (hover to see other rain measurements)
** Current wind speed in m/s (hover to see current wind gust speed)